{"data":{"norad_id":68909,"epoch":"2026-09-20T04:52:09.344352Z","epoch_age_seconds":41046,"freshness":"FRESH","line1":"1 68909U 26097Q   26263.20288593  .00018822  00000+0  58359-3 0  9995","line2":"2 68909  97.2818  97.3118 0002129  95.6013 264.5472 15.33460075 22048","mean_motion":15.33460075,"eccentricity":0.0002129,"inclination_deg":97.2818,"raan_deg":97.3118,"arg_perigee_deg":95.6013,"mean_anomaly_deg":264.5472,"bstar":0.00058359,"rev_number":2204,"period_min":93.905281492249,"perigee_km":464.04131229163,"apogee_km":466.95533221185,"semimajor_km":6843.6353222517,"source":"CELESTRAK","updated_at":"2026-09-20T09:00:44.048842Z"}}